Wind_Speed
14 10 7 5 2 7 5 15 20 24 31 33 34 34 31 29 31 33 34 32 31 28
18 16 12 10 7 7 9 13 17 24 27 32 31 32 31 31 32 30 33 33 29 30
21 19 16 13 11 14 13 13 21 22 23 27 30 32 31 32 30 30 32 31 28 30
24 22 18 21 23 21 17 15 17 24 24 23 27 30 30 29 28 30 32 30 29 31
34 33 30 32 29 25 22 16 12 10 19 24 26 23 25 28 27 29 30 30 30 31
36 31 34 33 31 28 26 24 22 16 13 11 14 21 23 28 28 29 32 31 31 32
30 28 27 27 30 32 33 32 31 29 26 21 19 18 11 10 18 27 28 29 30 32
25 27 29 30 28 30 33 34 34 33 34 34 33 31 22 16 17 17 26 29 31 33
27 28 27 28 29 29 30 32 33 34 33 37 39 36 27 16 15 18 19 26 29 33
27 27 28 28 28 29 30 30 31 33 33 35 43 42 32 29 16 13 13 10 6 14
27 27 28 28 28 28 28 29 30 32 34 33 42 47 34 30 30 28 25 26 21 12
31 29 29 30 28 27 27 28 30 31 33 36 35 46 44 34 31 28 26 27 30 26
26 28 28 28 28 25 26 27 24 27 32 30 34 39 41 36 30 28 28 29 33 34
27 26 26 25 27 27 25 25 26 25 27 32 33 35 34 34 31 26 23 27 31 30
Wind_Direction
58 54 50 29 330 257 264 240 245 244 234 227 220 222 219 224 224 205 210 215 219 228
42 37 28 15 350 312 302 279 268 253 246 241 228 220 219 222 221 217 214 217 217 224
39 36 27 26 2 359 336 302 269 259 252 247 236 228 219 221 226 221 223 220 215 220
44 36 30 30 21 14 346 339 299 257 248 251 238 228 223 219 223 224 226 217 217 219
39 33 29 30 25 21 15 357 345 293 255 251 241 236 225 225 225 225 225 221 220 222
33 29 29 29 28 30 25 23 24 21 16 358 269 251 240 233 231 236 236 227 221 221
31 29 32 31 33 34 34 31 32 31 32 27 14 3 329 271 245 235 236 233 230 226
34 35 36 35 34 33 35 33 35 31 32 29 22 11 351 312 273 257 241 240 237 237
31 33 36 38 39 40 37 34 31 29 26 26 20 16 11 349 311 278 280 243 240 237
28 30 32 34 36 36 36 36 34 31 27 24 19 24 24 24 26 26 16 11 342 265
29 30 30 31 33 34 34 35 34 32 29 27 20 22 28 31 36 40 33 30 24 12
27 26 26 26 25 29 32 32 31 31 29 26 20 20 22 28 33 32 30 27 33 27
30 30 28 27 26 27 29 30 30 29 28 25 21 19 19 22 22 20 19 25 29 29
28 27 26 27 28 26 23 26 24 24 23 23 22 19 18 20 22 14 11 16 19 20
Height
711 714 714 712 714 722 723 723 726 731 733 735 737 739 742 745 746 740 747 751 755 760
708 711 713 715 720 722 718 720 725 727 729 730 731 731 735 738 739 741 742 742 745 751
715 715 718 718 723 715 714 717 723 724 724 726 726 727 727 729 735 735 737 737 737 742
720 722 724 717 714 712 719 712 720 720 721 721 720 721 722 724 727 729 730 728 730 733
721 724 724 718 718 717 717 722 719 715 716 716 716 716 716 718 720 721 722 721 724 725
732 736 730 728 729 728 727 723 718 714 711 711 712 712 711 711 713 715 715 715 716 717
750 748 745 742 738 733 729 727 722 720 716 713 710 707 705 705 706 707 708 709 710 712
761 757 750 745 743 740 735 733 730 725 722 718 715 712 707 703 702 702 701 702 702 704
765 759 758 754 752 748 743 738 734 732 730 723 719 714 708 703 700 700 698 696 696 696
773 768 763 760 756 752 749 747 744 740 735 730 726 716 712 708 701 698 697 694 690 691
782 776 770 766 762 758 756 753 749 747 743 738 733 727 721 714 706 702 705 702 695 691
783 781 776 772 769 765 762 759 756 753 749 745 743 737 729 719 715 715 712 708 700 694
794 790 787 783 778 775 770 767 765 761 758 754 748 742 736 731 726 722 718 714 704 698
799 797 794 791 786 783 779 775 771 768 765 760 754 750 746 740 734 731 726 719 712 710